This is the latest recevied weather packets stored in our database for station/object OK1CBR-13. If no packets are shown the sender has not sent any weather packets the latest 10 day(s).
| Time | Temp. | Humidity | Pressure | Rain* | Wind** | Luminosity | Snow |
|---|---|---|---|---|---|---|---|
| 1778152654 | 18.33° C | 63% | 1012.7 hPa | - | - | - | - |
| 1778152054 | 17.78° C | 64% | 1012.7 hPa | - | - | - | - |
| 1778151454 | 17.78° C | 68% | 1012.6 hPa | - | - | - | - |
| 1778150854 | 17.22° C | 67% | 1012.6 hPa | - | - | - | - |
| 1778150254 | 17.78° C | 65% | 1012.6 hPa | - | - | - | - |
| 1778149654 | 17.78° C | 69% | 1012.4 hPa | - | - | - | - |
| 1778149054 | 17.78° C | 63% | 1012.4 hPa | - | - | - | - |
| 1778148454 | 18.33° C | 59% | 1012.2 hPa | - | - | - | - |
| 1778147854 | 17.78° C | 63% | 1012.2 hPa | - | - | - | - |
| 1778147254 | 17.22° C | 68% | 1012.2 hPa | - | - | - | - |
| 1778146654 | 17.78° C | 70% | 1012.2 hPa | - | - | - | - |
| 1778146054 | 17.22° C | 76% | 1012.2 hPa | - | - | - | - |
| 1778145454 | 16.67° C | 74% | 1012.2 hPa | - | - | - | - |
| 1778144854 | 16.11° C | 80% | 1012.1 hPa | - | - | - | - |
| 1778144254 | 16.11° C | 79% | 1012 hPa | - | - | - | - |
| 1778143654 | 16.11° C | 77% | 1011.9 hPa | - | - | - | - |
| 1778143054 | 15.56° C | 81% | 1011.8 hPa | - | - | - | - |
| 1778142454 | 15.56° C | 84% | 1011.9 hPa | - | - | - | - |
| 1778141854 | 15° C | 87% | 1011.7 hPa | - | - | - | - |
| 1778141254 | 15° C | 89% | 1011.7 hPa | - | - | - | - |
| 1778140654 | 15° C | 92% | 1011.7 hPa | - | - | - | - |
| 1778140054 | 14.44° C | 95% | 1011.7 hPa | - | - | - | - |
| 1778139454 | 14.44° C | 93% | 1011.7 hPa | - | - | - | - |
| 1778138854 | 14.44° C | 95% | 1011.6 hPa | - | - | - | - |
| 1778138254 | 13.89° C | 99% | 1011.5 hPa | - | - | - | - |
* Rain since midnight (hover to see other rain measurements)
** Current wind speed in m/s (hover to see current wind gust speed)